Regional Weather Roundup
Issued by NWS

Home | Current Version | Previous Version | Text Only | Print | Product List | Glossary On
Versions: 1 2 3 4 5 6 7 8 9 10 11 12 13 14 15 16 17 18 19 20 21 22 23 24 25 26 27 28 29 30 31 32 33 34 35 36 37 38 39 40 41 42 43 44 45 46 47 48 49 50
577
ASUS44 KJAN 230303
RWRMS

MISSISSIPPI HOURLY WEATHER ROUNDUP
NATIONAL WEATHER SERVICE JACKSON MS
1000 PM CDT TUE APR 22 2014

NOTE: "FAIR: INDICATES FEW OR NO CLOUDS BELOW 12,000 FEET WITH NO
SIGNIFICANT WEATHER AND/OR OBSTRUCTIONS TO VISIBILITY.

MSZ001>002-007>008-010>013-018>021-025>028-034>036-230400-
NORTHWEST MISSISSIPPI

CITY           SKY/WX    TMP DP  RH WIND       PRES   REMARKS
CLARKSDALE       N/A     61  50  67 CALM      29.97R
CLEVELAND      FAIR      63  52  67 N3        29.95R
GREENWOOD      CLEAR     62  59  90 CALM      29.94R
GREENVILLE     CLEAR     65  52  62 N6        29.94R
GRENADA        FAIR      59  55  88 NW3       29.95R
OLIVE BRANCH   CLEAR     61  43  51 CALM      29.96S
OXFORD         FAIR      63  45  51 N5        29.97R
TUNICA         CLEAR     57  50  77 CALM      29.96S
$$

MSZ003>006-009-014>017-022>024-029>033-037>039-230400-
NORTHEAST MISSISSIPPI

CITY           SKY/WX    TMP DP  RH WIND       PRES   REMARKS
BELMONT        FAIR      66  53  62 N5        29.93R
COLUMBUS AFB   CLOUDY    67  64  91 CALM      29.92R
CORINTH        FAIR      63  48  59 NW3       29.94R
GOLDN TRIANGLE MOCLDY    66  61  82 NW5       29.94R
STARKVILLE     CLOUDY    66  61  82 CALM      29.93R
TUPELO         CLEAR     66  54  65 N7        29.93R
$$

MSZ040-058-230400-
CENTRAL MISSISSIPPI

CITY           SKY/WX    TMP DP  RH WIND       PRES   REMARKS
JACKSON INTL   PTCLDY    64  61  90 NW3       29.94R
JACKSON HAWKNS CLEAR     67  60  78 CALM      29.95R
MERIDIAN KEY   FOG       59  59 100 CALM      29.93R VSB 1/4
MERIDIAN NAS   FOG       61  60  97 CALM      29.93R VSB 1/2
RAYMOND        FAIR      63  57  82 CALM      29.94R HAZE
VICKSBURG      CLEAR     70  61  73 N3        29.94R
$$

MSZ059>079-230400-
SOUTH MISSISSIPPI

CITY           SKY/WX    TMP DP  RH WIND       PRES   REMARKS
BROOKHAVEN     FAIR      63  61  94 CALM      29.96R FOG
HATTIESBURG    CLEAR     62  61  96 CALM      29.94R FOG
MCCOMB         CLEAR     62  59  90 CALM      29.95R
NATCHEZ        CLEAR     63  61  94 CALM      29.96R
PINE BELT      CLEAR     61  57  88 CALM      29.95R
$$

MSZ080>082-230400-
COASTAL MISSISSIPPI

CITY           SKY/WX    TMP DP  RH WIND       PRES   REMARKS
BILOXI         CLEAR     69  67  92 N2        29.92R
PASCAGOULA     CLOUDY    67  66  97 CALM      29.92R
GULFPORT       CLOUDY    72  65  78 NW6       29.91R
$$



USA.gov is the U.S. government's official web portal to all federal, state and local government web resources and services.